COSMOS 1743

Satellite information

Favourite Embed

Satellite Type and Status

PAYLOADIN ORBIT

Key statistics

Satellite COSMOS 1743 at a glance.

Uptime

14412

Days in orbit

Revolutions

≈ 15.5

Per day

Orbit

LEO

Low Earth Orbit

Inclination

82.5

Latest

Satellite identification and parameters

Extended collection of information and parameters for COSMOS 1743.

Object identification

Identified? True

Debris? False

Object name: COSMOS 1743

International designator: 1986-034A

Object number (NORAD): 16719

Object ID (CCSDS): 16719

Country: COMMONWEALTH OF INDEPENDENT STATES (CIS)

Current information (Y/N): Y

RCS size: LARGE

Orbital parameters

Period: 92.962 minutes

Inclination: 82.5381 deg

SMA: 6797.728 km

Apoapsis: 425.921 km

Periapsis: 413.265 km

RAAN: 211.7469 deg

Eccentricy: 0.00093089

Argument of periapsis: 62.9826 deg

Mean anomaly: 297.2374 deg

Mean motion: 15.49020351 rev/day

Mean motion (dot): 0.00032169 rev/day2

B* drag term: 0.00059118396 1/REarth

Two-line elements (TLE)

Creation date: Oct. 28, 2025, 7:11 p.m.

Reference frame: TEME

Reference center: EARTH

Epoch: Oct. 28, 2025, 5:20 a.m. UTC

TLE line 0: 0 COSMOS 1743

TLE line 1: 1 16719U 86034A 25301.22247934 .00032169 00000-0 59118-3 0 9997

TLE line 2: 2 16719 82.5381 211.7469 0009309 62.9826 297.2374 15.49020351159680

Live tracking on map

Real-time ground track for satellite COSMOS 1743.

In-orbit conjunctions

A list of the most updated potential collisions computed for object COSMOS 1743.

Target Orbit TCA Probability of collision Miss distance Type
TLV R/B LEO 2025-08-28 15:29:45 0.00125799 340.0 (m) ROCKET BODY

Associated space launch

Tselina-D satellites provided detailed observation of radio sources detected by the smaller Tselina-O satellites as part of the Tselina ELINT system.

COSMOS 1743 was lifted into orbit during the mission ‘Tsiklon-3 | Tselina-D 55’, on board a Tsiklon-3 space rocket.

The launch took place on May 15, 1986, 4:26 a.m. from 32/1.

For more information about the launch, click the button.

Launch to space Tsiklon-3 | Tselina-D 55
Tsiklon-3 | Tselina-D 55

Agency: N/A

Status: Launch Successful

Launch date: May 15, 1986, 4:26 a.m. UTC

Rocket: Tsiklon-3

Launch pad: 32/1

Location: Plesetsk Cosmodrome, Russian Federation

...

Latest news about this satellite

There are no fresh news available about this satellite. Check back as we update our databases every day.


Newsletter sign-up

Weekly statistics, charts and insights to help you stay on top of the space industry.